"Date","subscriberCount","subscriberChange","viewCount","viewChange","videoCount","videoChange","commentCount","commentChange"
"2020-10-15 00:02:06","1190000","0","704168808","9","1113","1","0","0"
"2020-10-16 00:02:06","1190000","0","704665685","496877","1111","-2","0","0"
"2020-10-17 00:02:06","1190000","0","703109774","-1555911","1111","0","0","0"
"2020-10-18 00:02:07","1190000","0","703616877","507103","1112","1","0","0"
"2020-10-19 00:02:06","1190000","0","704002921","386044","1112","0","0","0"
"2020-10-20 00:02:07","1190000","0","704319667","316746","1113","1","0","0"
"2020-10-21 00:02:06","1190000","0","704699669","380002","1115","2","0","0"
"2020-10-22 00:02:06","1190000","0","704999733","300064","1116","1","0","0"
"2020-10-23 00:02:08","1190000","0","705349008","349275","1117","1","0","0"
"2020-10-24 00:02:07","1190000","0","705693271","344263","1118","1","0","0"
"2020-10-25 00:02:07","1190000","0","705926315","233044","1119","1","0","0"
"2020-10-27 00:02:06","1190000","0","706779894","853579","1121","2","","0"
"2020-10-28 00:02:06","1190000","0","707162038","382144","1122","1","0","0"
"2020-10-29 00:02:05","1190000","0","707548016","385978","1123","1","0","0"
"2020-10-30 00:02:04","1190000","0","707969653","421637","1124","1","0","0"
"2020-10-31 00:02:06","1190000","0","708429774","460121","1125","1","0","0"
"2020-11-01 00:02:05","1190000","0","708822025","392251","1126","1","0","0"
"2020-11-02 00:02:04","1190000","0","709409933","587908","1127","1","0","0"
"2020-11-03 00:02:06","1190000","0","709886176","476243","1128","1","0","0"
"2020-11-04 00:02:05","1190000","0","710567973","681797","1128","0","0","0"
"2020-11-05 00:02:07","1190000","0","710909846","341873","1130","2","","0"
"2020-11-06 00:02:06","1190000","0","711411678","501832","1131","1","","0"
"2020-11-07 00:02:07","1190000","0","711796349","384671","1132","1","","0"
"2020-11-08 00:02:06","1190000","0","712261231","464882","1133","1","","0"
"2020-11-09 00:02:08","1190000","0","712813803","552572","1134","1","0","0"
"2020-11-10 00:02:06","1190000","0","713247402","433599","1134","0","0","0"
"2020-11-11 00:02:06","1190000","0","713581200","333798","1135","1","0","0"
"2020-11-12 00:02:04","1200000","10000","713945341","364141","1137","2","","0"
"2020-11-13 00:02:04","1200000","0","714319467","374126","1138","1","","0"
"2020-11-14 00:02:03","1200000","0","714754938","435471","1139","1","","0"
"2020-11-15 00:02:03","1200000","0","715197916","442978","1140","1","","0"
"2020-11-16 00:02:05","1200000","0","715718974","521058","1141","1","","0"
"2020-11-17 00:02:03","1200000","0","716130990","412016","1142","1","","0"
"2020-11-18 00:02:04","1200000","0","716545020","414030","1143","1","","0"
"2020-11-19 00:02:03","1200000","0","716927914","382894","1144","1","","0"
"2020-11-20 00:02:04","1200000","0","717364226","436312","1145","1","","0"
"2020-11-21 00:02:03","1200000","0","717753416","389190","1146","1","","0"
"2020-11-22 00:02:03","1200000","0","718153966","400550","1147","1","","0"
"2020-11-23 00:02:04","1200000","0","718723695","569729","1148","1","","0"
"2020-11-24 00:02:04","1200000","0","719243373","519678","1149","1","","0"
"2020-11-25 00:02:03","1200000","0","719691295","447922","1150","1","","0"
"2020-11-26 00:02:04","1200000","0","720074077","382782","1151","1","","0"
"2020-11-27 00:02:04","1200000","0","720496281","422204","1152","1","","0"
"2020-11-28 00:02:04","1200000","0","720887972","391691","1153","1","","0"
"2020-11-29 00:02:03","1200000","0","721273954","385982","1154","1","","0"
"2020-11-30 00:02:04","1200000","0","721813294","539340","1155","1","","0"
"2020-12-01 00:02:04","1200000","0","722145488","332194","1156","1","","0"
"2020-12-02 00:02:04","1200000","0","722478879","333391","1157","1","","0"
"2020-12-03 00:02:04","1200000","0","722850604","371725","1158","1","","0"
"2020-12-04 00:02:04","1200000","0","723242912","392308","1159","1","","0"
"2020-12-05 00:02:08","1200000","0","723585197","342285","1160","1","","0"
"2020-12-06 00:02:04","1200000","0","723918403","333206","1161","1","","0"
"2020-12-07 00:02:04","1200000","0","724325296","406893","1162","1","","0"
"2020-12-08 00:02:04","1200000","0","724628638","303342","1163","1","","0"
"2020-12-09 00:02:04","1200000","0","726144390","1515752","1165","2","","0"
"2020-12-10 00:02:05","1200000","0","726472976","328586","1166","1","","0"
"2020-12-11 00:02:05","1200000","0","726804806","331830","1167","1","","0"
"2020-12-12 00:02:06","1200000","0","727100400","295594","1168","1","","0"
"2020-12-13 00:02:05","1200000","0","727427968","327568","1169","1","","0"
"2020-12-14 00:02:06","1200000","0","727805138","377170","1170","1","","0"
"2020-12-15 00:02:07","1200000","0","728146945","341807","1171","1","","0"
"2020-12-16 00:02:05","1200000","0","728523927","376982","1172","1","","0"
"2020-12-17 00:02:06","1200000","0","728837542","313615","1173","1","","0"
"2020-12-18 00:02:05","1200000","0","729222195","384653","1174","1","","0"
"2020-12-19 00:02:06","1200000","0","729521541","299346","1175","1","","0"
"2020-12-20 00:02:05","1200000","0","729920935","399394","1176","1","","0"
"2020-12-21 00:02:06","1200000","0","730372620","451685","1177","1","","0"
"2020-12-22 00:02:05","1200000","0","730672951","300331","1178","1","","0"
"2020-12-23 00:02:04","1200000","0","731119960","447009","1179","1","","0"
"2020-12-24 00:02:05","1200000","0","731491432","371472","1180","1","","0"
"2020-12-25 00:02:05","1200000","0","731889900","398468","1181","1","","0"
"2020-12-26 00:02:05","1200000","0","732343484","453584","1182","1","","0"
"2020-12-27 00:02:04","1200000","0","732704458","360974","1183","1","","0"
"2020-12-28 00:02:05","1210000","10000","733135857","431399","1184","1","","0"
"2020-12-29 00:02:05","1210000","0","733627131","491274","1185","1","","0"
"2020-12-30 00:02:04","1210000","0","734081507","454376","1186","1","","0"
"2020-12-31 00:02:04","1210000","0","734567516","486009","1187","1","","0"
"2021-01-01 00:02:05","1210000","0","734971607","404091","1188","1","","0"
"2021-01-02 00:02:07","1210000","0","735367995","396388","1189","1","","0"
"2021-01-03 00:02:06","1210000","0","735855754","487759","1190","1","","0"
"2021-01-04 00:02:07","1210000","0","736401200","545446","1191","1","","0"
"2021-01-05 00:02:08","1210000","0","736924072","522872","1192","1","","0"
"2021-01-06 00:02:06","1210000","0","737447132","523060","1193","1","","0"
"2021-01-07 00:02:03","1210000","0","737966052","518920","1194","1","","0"
"2021-01-08 00:02:03","1210000","0","738439184","473132","1195","1","","0"
"2021-01-09 00:02:03","1210000","0","738900323","461139","1196","1","","0"
"2021-01-10 00:02:04","1220000","10000","739330385","430062","1197","1","","0"
"2021-01-11 00:02:04","1220000","0","739845737","515352","1198","1","","0"
"2021-01-12 00:02:04","1220000","0","740357948","512211","1199","1","","0"
"2021-01-13 00:02:03","1220000","0","740807685","449737","1200","1","","0"
"2021-01-14 00:02:03","1220000","0","741223350","415665","1201","1","","0"
"2021-01-15 00:02:04","1220000","0","741665030","441680","1202","1","","0"
"2021-01-16 00:02:04","1220000","0","742107738","442708","1203","1","","0"
"2021-01-17 00:02:03","1220000","0","742550279","442541","1204","1","","0"
"2021-01-18 00:02:04","1220000","0","743283922","733643","1205","1","","0"
"2021-01-19 00:02:03","1220000","0","743798700","514778","1206","1","","0"
"2021-01-20 00:02:03","1220000","0","744281367","482667","1207","1","","0"
"2021-01-21 00:02:04","1220000","0","744763169","481802","1208","1","","0"
"2021-01-22 00:02:03","1220000","0","745239149","475980","1209","1","","0"
"2021-01-23 00:02:04","1230000","10000","745750995","511846","1210","1","","0"
"2021-01-24 00:02:03","1230000","0","746268665","517670","1211","1","","0"
"2021-01-25 00:02:04","1230000","0","746814655","545990","1212","1","","0"
"2021-01-26 00:02:04","1230000","0","747267495","452840","1213","1","","0"
"2021-01-27 00:02:04","1230000","0","747745799","478304","1214","1","","0"
"2021-01-28 00:02:03","1230000","0","748169776","423977","1215","1","","0"
"2021-01-29 00:02:04","1230000","0","748584489","414713","1216","1","","0"
"2021-01-30 00:02:03","1230000","0","749035411","450922","1217","1","","0"
"2021-01-31 00:02:03","1230000","0","749459868","424457","1218","1","","0"
"2021-02-01 00:02:04","1230000","0","749960135","500267","1219","1","","0"
"2021-02-02 00:02:03","1230000","0","750416188","456053","1220","1","","0"
"2021-02-03 00:02:04","1230000","0","750856069","439881","1221","1","","0"
"2021-02-04 00:02:04","1230000","0","751274736","418667","1222","1","","0"
"2021-02-05 00:02:04","1230000","0","751725001","450265","1208","-14","","0"
"2021-02-06 00:02:04","1230000","0","752192911","467910","1209","1","","0"
"2021-02-07 00:02:03","1240000","10000","738099199","-14093712","1210","1","","0"
"2021-02-08 00:02:04","1240000","0","738657189","557990","1207","-3","","0"
"2021-02-09 00:02:04","1240000","0","736484820","-2172369","1208","1","","0"
"2021-02-10 00:02:04","1240000","0","736960688","475868","1209","1","","0"
"2021-02-11 00:02:04","1240000","0","737387915","427227","1210","1","","0"
"2021-02-12 00:02:03","1240000","0","738036164","648249","1211","1","","0"
"2021-02-13 00:02:04","1240000","0","738495760","459596","1212","1","","0"
"2021-02-14 00:02:04","1240000","0","739051279","555519","1213","1","","0"
"2021-02-15 00:02:03","1240000","0","739679886","628607","1214","1","","0"
"2021-02-16 00:02:04","1240000","0","740286948","607062","1215","1","","0"
"2021-02-17 00:02:03","1240000","0","740843676","556728","1216","1","","0"
"2021-02-18 00:02:03","1240000","0","741380163","536487","1217","1","","0"
"2021-02-19 00:02:03","1240000","0","741906465","526302","1218","1","","0"
"2021-02-20 00:02:04","1240000","0","742376742","470277","1219","1","","0"
"2021-02-21 00:02:04","1250000","10000","742966001","589259","1220","1","","0"
"2021-02-22 00:02:04","1250000","0","743528644","562643","1221","1","","0"
"2021-02-23 00:02:03","1250000","0","744038643","509999","1222","1","","0"
"2021-02-24 00:02:03","1250000","0","744706704","668061","1223","1","","0"
"2021-02-25 00:02:03","1250000","0","745223572","516868","1224","1","","0"
"2021-02-26 00:02:04","1250000","0","745695369","471797","1225","1","","0"
"2021-02-27 00:02:03","1250000","0","746228918","533549","1217","-8","","0"
"2021-02-28 00:02:04","1250000","0","746827639","598721","1218","1","","0"
"2021-03-01 00:02:03","1250000","0","743827776","-2999863","1219","1","","0"
"2021-03-02 00:02:04","1250000","0","744342926","515150","1220","1","","0"
"2021-03-03 00:02:04","1250000","0","744809455","466529","1221","1","","0"
"2021-03-04 00:02:03","1250000","0","745353704","544249","1222","1","","0"
"2021-03-05 00:02:04","1250000","0","745486449","132745","1223","1","","0"
"2021-03-06 00:02:03","1250000","0","745988801","502352","1224","1","","0"
"2021-03-07 00:02:04","1260000","10000","746429705","440904","1225","1","","0"
"2021-03-08 00:02:04","1260000","0","747017683","587978","1226","1","","0"
"2021-03-09 00:02:03","1260000","0","747630774","613091","1227","1","","0"
"2021-03-10 00:02:03","1260000","0","748140019","509245","1228","1","","0"
"2021-03-11 00:02:03","1260000","0","748651847","511828","1229","1","","0"
"2021-03-12 00:02:04","1260000","0","749104853","453006","1230","1","","0"
"2021-03-13 00:02:03","1260000","0","749563954","459101","1231","1","","0"
"2021-03-14 00:02:04","1260000","0","749998232","434278","1232","1","","0"
"2021-03-15 00:02:04","1260000","0","750503377","505145","1233","1","","0"
"2021-03-16 00:02:03","1260000","0","750994680","491303","1234","1","","0"
"2021-03-17 00:02:03","1260000","0","751375082","380402","1235","1","","0"
"2021-03-18 00:02:03","1260000","0","751718023","342941","1236","1","","0"
"2021-03-19 00:02:03","1260000","0","752136695","418672","1237","1","","0"
"2021-03-20 00:02:03","1260000","0","752529789","393094","1238","1","","0"
"2021-03-21 00:02:03","1260000","0","752915317","385528","1239","1","","0"
"2021-03-22 00:02:03","1260000","0","753261169","345852","1240","1","","0"
"2021-03-23 00:02:04","1260000","0","753722867","461698","1241","1","","0"
"2021-03-24 00:02:04","1260000","0","754083039","360172","1242","1","","0"
"2021-03-25 00:02:03","1260000","0","754416744","333705","1243","1","","0"
"2021-03-26 00:02:03","1260000","0","754778907","362163","1244","1","","0"
"2021-03-27 00:02:03","1260000","0","755103214","324307","1245","1","","0"
"2021-03-28 00:02:04","1260000","0","755569671","466457","1246","1","","0"
"2021-03-29 00:02:04","1260000","0","755955613","385942","1247","1","","0"
"2021-03-30 00:02:03","1260000","0","756292604","336991","1248","1","","0"
"2021-03-31 00:02:03","1260000","0","756707620","415016","1249","1","","0"
"2021-04-01 00:02:04","1260000","0","757070794","363174","1250","1","","0"
"2021-04-02 00:02:03","1260000","0","757432119","361325","1251","1","","0"
"2021-04-03 00:02:03","1260000","0","757785488","353369","1252","1","","0"
"2021-04-04 00:02:03","1260000","0","758171824","386336","1253","1","","0"
"2021-04-05 00:02:04","1260000","0","758578890","407066","1254","1","","0"
"2021-04-06 00:02:04","1260000","0","758913103","334213","1255","1","","0"
"2021-04-07 00:02:04","1260000","0","759338247","425144","1256","1","","0"
"2021-04-08 00:02:04","1260000","0","759750055","411808","1257","1","","0"
"2021-04-09 00:02:04","1260000","0","760138395","388340","1258","1","","0"
"2021-04-10 00:02:04","1260000","0","760510044","371649","1259","1","","0"
"2021-04-11 00:02:04","1260000","0","760821343","311299","1260","1","","0"
"2021-04-12 00:02:04","1260000","0","761168718","347375","1261","1","","0"
"2021-04-13 00:02:04","1260000","0","761472499","303781","1262","1","","0"
"2021-04-14 00:02:04","1260000","0","761801874","329375","1263","1","","0"
"2021-04-15 00:02:04","1260000","0","762097639","295765","1264","1","","0"
"2021-04-16 00:02:05","1260000","0","762389507","291868","1265","1","","0"
"2021-04-17 00:02:04","1270000","10000","762659402","269895","1266","1","","0"
"2021-04-18 00:02:05","1270000","0","762981251","321849","1267","1","","0"
"2021-04-19 00:02:05","1270000","0","763322429","341178","1268","1","","0"
"2021-04-20 00:02:04","1270000","0","763708483","386054","1269","1","","0"
"2021-04-21 00:02:04","1270000","0","764023152","314669","1270","1","","0"
"2021-04-22 00:02:04","1270000","0","764321785","298633","1271","1","","0"
"2021-04-23 00:02:04","1270000","0","764614442","292657","1272","1","","0"
"2021-04-24 00:02:04","1270000","0","764928512","314070","1273","1","","0"
"2021-04-25 00:02:04","1270000","0","765244738","316226","1274","1","","0"
"2021-04-26 00:02:05","1270000","0","765575514","330776","1275","1","","0"
"2021-04-27 00:02:04","1270000","0","765864527","289013","1276","1","","0"
"2021-04-28 00:02:04","1270000","0","766336689","472162","1277","1","","0"
"2021-04-29 00:02:04","1270000","0","766679550","342861","1278","1","","0"
"2021-04-30 00:02:04","1270000","0","766997353","317803","1279","1","","0"
"2021-05-01 00:02:05","1270000","0","767379939","382586","1280","1","","0"
"2021-05-02 00:02:04","1270000","0","767682559","302620","1281","1","","0"
"2021-05-03 00:02:05","1270000","0","768088143","405584","1282","1","","0"
"2021-05-04 00:02:05","1270000","0","768454493","366350","1283","1","","0"
"2021-05-05 00:02:04","1270000","0","768905729","451236","1284","1","","0"
"2021-05-06 00:02:04","1270000","0","769326478","420749","1285","1","","0"
"2021-05-07 00:02:04","1270000","0","769801694","475216","1286","1","","0"
"2021-05-08 00:02:05","1270000","0","770136315","334621","1287","1","","0"
"2021-05-09 00:02:03","1270000","0","770495237","358922","1288","1","","0"
"2021-05-10 00:02:05","1270000","0","770895766","400529","1289","1","","0"
"2021-05-11 00:02:04","1270000","0","771395800","500034","1290","1","","0"
"2021-05-12 00:02:05","1270000","0","771755845","360045","1291","1","","0"
"2021-05-13 00:02:04","1270000","0","772161662","405817","1292","1","","0"
"2021-05-14 00:02:05","1270000","0","772481102","319440","1293","1","","0"
"2021-05-15 00:02:05","1270000","0","772747295","266193","1294","1","","0"
"2021-05-16 00:02:05","1270000","0","773060983","313688","1295","1","","0"
"2021-05-17 00:02:04","1270000","0","773445128","384145","1296","1","","0"
"2021-05-18 00:02:05","1270000","0","773875846","430718","1297","1","","0"
"2021-05-19 00:02:04","1270000","0","774231434","355588","1298","1","","0"
"2021-05-20 00:02:04","1270000","0","774576476","345042","1299","1","","0"
"2021-05-21 00:02:05","1270000","0","774872581","296105","1300","1","","0"
"2021-05-22 00:02:05","1270000","0","775210075","337494","1301","1","","0"
"2021-05-23 00:02:05","1270000","0","775499470","289395","1302","1","","0"
"2021-05-24 00:02:05","1270000","0","775811901","312431","1303","1","","0"
"2021-05-25 00:02:05","1270000","0","776126396","314495","1304","1","","0"
"2021-05-26 00:02:04","1270000","0","776506956","380560","1305","1","","0"
"2021-05-27 00:02:04","1270000","0","776816268","309312","1306","1","","0"
"2021-05-28 00:02:04","1280000","10000","777118825","302557","1307","1","","0"
"2021-05-29 00:02:05","1280000","0","777437599","318774","1308","1","","0"
"2021-05-30 00:02:07","1280000","0","777759283","321684","1309","1","","0"
"2021-05-31 00:02:05","1280000","0","778085207","325924","1310","1","","0"
"2021-06-01 00:02:05","1280000","0","778381224","296017","1311","1","","0"
"2021-06-02 00:02:04","1280000","0","778693209","311985","1312","1","","0"
"2021-06-03 00:02:04","1280000","0","778948711","255502","1313","1","","0"
"2021-06-04 00:02:04","1280000","0","779201285","252574","1314","1","","0"
"2021-06-05 00:02:04","1280000","0","779479511","278226","1315","1","","0"
"2021-06-06 00:02:04","1280000","0","779739012","259501","1316","1","","0"
"2021-06-07 00:02:04","1280000","0","780068643","329631","1317","1","","0"
"2021-06-08 00:02:06","1280000","0","780408767","340124","1318","1","","0"
"2021-06-09 00:02:03","1280000","0","780664676","255909","1319","1","","0"
"2021-06-10 00:02:04","1280000","0","780936415","271739","1320","1","","0"
"2021-06-11 00:02:04","1280000","0","781175305","238890","1321","1","","0"
"2021-06-12 00:02:05","1280000","0","781448660","273355","1322","1","","0"
"2021-06-13 00:02:04","1280000","0","781684225","235565","1323","1","","0"
"2021-06-14 00:02:04","1280000","0","782008183","323958","1324","1","","0"
"2021-06-15 00:02:04","1280000","0","782355909","347726","1325","1","","0"
"2021-06-16 00:02:04","1280000","0","782627041","271132","1326","1","","0"
"2021-06-17 00:02:04","1280000","0","782895418","268377","1327","1","","0"
"2021-06-18 00:02:04","1280000","0","783126683","231265","1328","1","","0"
"2021-06-19 00:02:04","1280000","0","783367825","241142","1329","1","","0"
"2021-06-20 00:02:04","1280000","0","783583458","215633","1330","1","","0"
"2021-06-21 00:02:04","1280000","0","783848981","265523","1331","1","","0"
"2021-06-22 00:02:04","1280000","0","784140351","291370","1332","1","","0"
"2021-06-23 00:02:04","1280000","0","784411147","270796","1333","1","","0"
"2021-06-24 00:02:04","1280000","0","784674979","263832","1334","1","","0"
"2021-06-25 00:02:04","1280000","0","784936774","261795","1335","1","","0"
"2021-06-26 00:02:04","1280000","0","785176337","239563","1336","1","","0"
"2021-06-27 00:02:05","1280000","0","785388016","211679","1337","1","","0"
"2021-06-28 00:02:04","1280000","0","785674422","286406","1338","1","","0"
"2021-06-29 00:02:04","1280000","0","785970249","295827","1339","1","","0"
"2021-06-30 00:02:04","1280000","0","786246466","276217","1340","1","","0"
"2021-07-01 00:02:05","1280000","0","786542991","296525","1341","1","","0"
"2021-07-02 00:02:05","1280000","0","786772103","229112","1342","1","","0"
"2021-07-03 00:02:06","1280000","0","787017057","244954","1343","1","","0"
"2021-07-04 00:02:05","1280000","0","787235457","218400","1344","1","","0"
"2021-07-05 00:02:05","1280000","0","787527533","292076","1345","1","","0"
"2021-07-06 00:02:05","1280000","0","787757917","230384","1346","1","","0"
"2021-07-07 00:02:04","1280000","0","788094559","336642","1347","1","","0"
"2021-07-08 00:02:06","1280000","0","788385469","290910","1348","1","","0"
"2021-07-09 00:02:06","1280000","0","788639301","253832","1349","1","","0"
"2021-07-10 00:02:05","1280000","0","788876802","237501","1350","1","","0"
"2021-07-11 00:02:03","1280000","0","789108047","231245","1351","1","","0"
"2021-07-12 00:02:03","1280000","0","789407062","299015","1352","1","","0"
"2021-07-13 00:02:03","1280000","0","789653293","246231","1353","1","","0"
"2021-07-14 00:02:04","1280000","0","789940447","287154","1354","1","","0"
"2021-07-15 00:02:04","1280000","0","790176821","236374","1355","1","","0"
"2021-07-16 00:02:04","1280000","0","790404197","227376","1356","1","","0"
"2021-07-17 00:02:03","1280000","0","790629908","225711","1357","1","","0"
"2021-07-18 00:02:03","1280000","0","790839209","209301","1358","1","","0"
"2021-07-19 00:02:04","1280000","0","791111412","272203","1359","1","","0"
"2021-07-20 00:02:04","1280000","0","791392085","280673","1360","1","","0"
"2021-07-21 00:02:03","1280000","0","791641452","249367","1361","1","","0"
"2021-07-22 00:02:03","1280000","0","791918370","276918","1362","1","","0"
"2021-07-23 00:02:04","1280000","0","792238403","320033","1363","1","","0"
"2021-07-24 00:02:03","1280000","0","792532754","294351","1364","1","","0"
"2021-07-25 00:02:04","1280000","0","792862703","329949","1365","1","","0"
"2021-07-26 00:02:03","1280000","0","793195748","333045","1366","1","","0"
"2021-07-27 00:02:03","1280000","0","793531934","336186","1367","1","","0"
"2021-07-28 00:02:04","1280000","0","793846057","314123","1368","1","","0"
"2021-07-29 00:02:03","1280000","0","794183138","337081","1369","1","","0"
"2021-07-30 00:02:03","1280000","0","794492020","308882","1370","1","","0"
"2021-07-31 00:02:04","1290000","10000","794858621","366601","1371","1","","0"
"2021-08-01 00:02:03","1290000","0","795213684","355063","1372","1","","0"
"2021-08-02 00:02:03","1290000","0","795533858","320174","1373","1","","0"
"2021-08-03 00:02:03","1290000","0","795877975","344117","1374","1","","0"
"2021-08-04 00:02:03","1290000","0","796254480","376505","1374","0","","0"
"2021-08-05 00:02:02","1290000","0","796549022","294542","1375","1","","0"
"2021-08-06 00:02:03","1290000","0","796656267","107245","1375","0","","0"
"2021-08-07 00:02:03","1290000","0","796890351","234084","1376","1","","0"
"2021-08-08 00:02:04","1290000","0","797286307","395956","1377","1","","0"
"2021-08-09 00:02:03","1290000","0","796961574","-324733","1378","1","","0"
"2021-08-10 00:02:04","1290000","0","797311221","349647","1379","1","","0"
"2021-08-11 00:02:04","1290000","0","797311221","0","1380","1","","0"
"2021-08-12 00:02:03","1290000","0","798062704","751483","1381","1","","0"
"2021-08-13 00:02:03","1290000","0","798415699","352995","1382","1","","0"
"2021-08-14 00:02:04","1290000","0","798774675","358976","1383","1","","0"
"2021-08-15 00:02:04","1290000","0","799069176","294501","1384","1","","0"
"2021-08-16 00:02:05","1290000","0","799427585","358409","1384","0","","0"
"2021-08-17 00:02:04","1290000","0","799433893","6308","1385","1","","0"
"2021-08-18 00:02:03","1290000","0","800090649","656756","1386","1","","0"
"2021-08-19 00:02:03","1290000","0","800212027","121378","1387","1","","0"
"2021-08-20 00:02:03","1290000","0","800499811","287784","1388","1","","0"
"2021-08-21 00:02:03","1290000","0","800811725","311914","1389","1","","0"
"2021-08-22 00:02:08","1290000","0","801156464","344739","1390","1","","0"
"2021-08-23 00:02:03","1290000","0","801503394","346930","1391","1","","0"
"2021-08-24 00:02:04","1290000","0","801791719","288325","1392","1","","0"
"2021-08-25 00:02:03","1290000","0","802121520","329801","1360","-32","","0"
"2021-08-26 00:02:04","1290000","0","802403735","282215","1353","-7","","0"
"2021-08-27 00:02:03","1290000","0","802684408","280673","1353","0","","0"
"2021-08-28 00:02:04","1290000","0","792320047","-10364361","1353","0","","0"